Balance de Rebecq

Balances > Rebecq > Ce mois-ci

Ce mois-ci

Voir les données pour : cette semaine | hier

Graphiques

  Température (°C)   Température intérieure (°C)   Humidité (%)   Poids (kg)   Pluie (l/m²)



Journal

16 juillet 2020 : mise en place de la hausse de plancher

confinement de la reine sous grille à reine pour 24 jours et nourrissement

13 juillet 2020 : retrait 2 hausses et ajout nourrisseurs

Tableau

Date Température (°C)Température int. (°C)Humidité (%)Pluie (l/m²)Poids (kg)
minmaxmoyminmaxmoyminmaxmoypoidsvariation
04/07/2016,020,518,634,634,834,7818682,7048,70,0
05/07/2017,521,419,434,634,834,6698881,7148,6-0,1
06/07/2012,719,917,034,634,734,6618670,7048,4-0,2
07/07/2013,421,418,434,534,934,7638770,4048,2-0,2
08/07/2015,318,717,134,534,734,6838987,4848,3+0,1
09/07/2017,623,620,734,434,834,6728979,4047,9-0,4
10/07/2017,220,418,734,434,634,5678875,4047,7-0,2
11/07/2011,220,516,834,334,534,4618871,8047,6-0,1
12/07/2011,221,417,834,334,734,5538966,4048,8+1,2
13/07/2012,723,719,634,134,634,3518563,1031,6-17,2
14/07/2016,020,218,134,234,434,3758581,71531,60,0
15/07/2015,820,818,534,334,434,3708778,2031,4-0,2
16/07/2016,418,817,527,334,431,3818885,1238,1+6,7
17/07/2016,322,719,726,030,828,5798883,7037,3-0,8
18/07/2016,223,821,126,232,430,0708877,5036,8-0,5
19/07/2014,722,519,326,032,229,0698777,4038,8+2,0
20/07/2015,321,318,423,626,424,8538868,5137,9-0,9
21/07/2010,821,117,122,330,127,0568868,2037,4-0,5
22/07/2010,220,917,125,230,828,2558967,2039,3+1,9
23/07/2011,224,719,621,830,026,6508763,2038,4-0,9
24/07/2015,522,419,824,330,627,7708576,8038,5+0,1
25/07/2015,823,520,224,931,028,2708779,7138,2-0,3
26/07/2017,221,819,526,033,529,0658877,5639,0+0,8
27/07/2015,226,021,722,830,727,0508766,0038,0-1,0
28/07/2018,522,220,226,329,828,3588367,0037,7-0,3
29/07/2012,821,818,324,529,627,7598768,8037,5-0,2
30/07/2012,826,821,624,532,428,5438660,7039,5+2,0
31/07/2015,833,426,923,033,028,9368154,4038,4-1,1
01/08/2021,127,324,326,832,229,9617968,2038,2-0,2
02/08/2016,523,320,426,029,828,2568669,7038,0-0,2